Find Starlink 30162

NORAD ID: 57446 Int'l Des: 2023-105 Owner: SPXS Country: US Constellation: starlink operational
LEOCIRCULAR

Current View

Loading 3D Globe...

About Starlink 30162

Starlink 30162 (NORAD 57446) is a starlink constellation satellite (v2 mini) launched Jul 24, 2023 by SPXS of US. It operates in LEO, CIRCULAR orbit with a mass of 730.00 kg.

About Starlink 30162

Description loading...

Upcoming Passes

Passes for default location (London). Set your location on the main map for personalized predictions.

Altitude History

Loading altitude history...

Two-Line Element Set

1 57446U 23105S 26170.31087980 .00000423 00000-0 24883-4 0 9997
2 57446 43.0034 34.8960 0000886 270.4906 89.5845 15.27574410161252
Epoch: Jun 19, 2026 • Age: 17 hours

Current Status

Altitude 487.7 km
Velocity 7.62 km/s
Sub-Earth Point -21.84°S, 88.62°E
Launch Date Jul 24, 2023
Age 2.9 years
Type internet

Technical Details

Classification Payload
Mass 730.00 kg
Dry Mass 700.00 kg
Total Mass 730.00 kg
Length 0.30 m
Diameter 4.10 m
Span 29.00 m
Shape Box + pan
Manufacturer SPXS
Bus Type Starlink V2M
Phase Status In Orbit
Owner/State SPXS/US

Most Searched